#	"Date Time, GMT-07:00"	Temp C
1	6/12/2014 13:56	17.57
2	6/12/2014 14:11	16.141
3	6/12/2014 14:26	15.855
4	6/12/2014 14:41	15.951
5	6/12/2014 14:56	15.855
6	6/12/2014 15:11	15.76
7	6/12/2014 15:26	15.855
8	6/12/2014 15:41	15.951
9	6/12/2014 15:56	16.046
10	6/12/2014 16:11	16.141
11	6/12/2014 16:26	16.046
12	6/12/2014 16:41	15.951
13	6/12/2014 16:56	15.951
14	6/12/2014 17:11	15.951
15	6/12/2014 17:26	15.951
16	6/12/2014 17:41	15.951
17	6/12/2014 17:56	15.951
18	6/12/2014 18:11	15.76
19	6/12/2014 18:26	15.569
20	6/12/2014 18:41	15.569
21	6/12/2014 18:56	15.569
22	6/12/2014 19:11	15.569
23	6/12/2014 19:26	15.473
24	6/12/2014 19:41	15.473
25	6/12/2014 19:56	15.378
26	6/12/2014 20:11	15.378
27	6/12/2014 20:26	15.473
28	6/12/2014 20:41	15.378
29	6/12/2014 20:56	15.378
30	6/12/2014 21:11	15.282
31	6/12/2014 21:26	15.378
32	6/12/2014 21:41	15.378
33	6/12/2014 21:56	15.378
34	6/12/2014 22:11	15.473
35	6/12/2014 22:26	15.473
36	6/12/2014 22:41	15.473
37	6/12/2014 22:56	15.473
38	6/12/2014 23:11	15.473
39	6/12/2014 23:26	15.473
40	6/12/2014 23:41	15.473
41	6/12/2014 23:56	15.473
42	6/13/2014 0:11	15.473
43	6/13/2014 0:26	15.378
44	6/13/2014 0:41	15.282
45	6/13/2014 0:56	15.282
46	6/13/2014 1:11	15.282
47	6/13/2014 1:26	15.282
48	6/13/2014 1:41	15.282
49	6/13/2014 1:56	15.282
50	6/13/2014 2:11	15.282
51	6/13/2014 2:26	15.378
52	6/13/2014 2:41	15.473
53	6/13/2014 2:56	15.378
54	6/13/2014 3:11	15.091
55	6/13/2014 3:26	14.9
56	6/13/2014 3:41	14.9
57	6/13/2014 3:56	15.091
58	6/13/2014 4:11	15.187
59	6/13/2014 4:26	15.091
60	6/13/2014 4:41	15.091
61	6/13/2014 4:56	15.091
62	6/13/2014 5:11	15.187
63	6/13/2014 5:26	15.282
64	6/13/2014 5:41	15.282
65	6/13/2014 5:56	15.282
66	6/13/2014 6:11	15.187
67	6/13/2014 6:26	15.187
68	6/13/2014 6:41	15.187
69	6/13/2014 6:56	15.091
70	6/13/2014 7:11	15.091
71	6/13/2014 7:26	15.091
72	6/13/2014 7:41	15.091
73	6/13/2014 7:56	15.091
74	6/13/2014 8:11	15.091
75	6/13/2014 8:26	15.091
76	6/13/2014 8:41	15.187
77	6/13/2014 8:56	15.187
78	6/13/2014 9:11	15.187
79	6/13/2014 9:26	15.187
80	6/13/2014 9:41	15.187
81	6/13/2014 9:56	15.187
82	6/13/2014 10:11	15.187
83	6/13/2014 10:26	15.187
84	6/13/2014 10:41	15.187
85	6/13/2014 10:56	15.187
86	6/13/2014 11:11	15.187
87	6/13/2014 11:26	15.282
88	6/13/2014 11:41	15.378
89	6/13/2014 11:56	15.569
90	6/13/2014 12:11	15.569
91	6/13/2014 12:26	15.569
92	6/13/2014 12:41	16.046
93	6/13/2014 12:56	16.046
94	6/13/2014 13:11	15.951
95	6/13/2014 13:26	15.951
96	6/13/2014 13:41	15.951
97	6/13/2014 13:56	16.046
98	6/13/2014 14:11	16.141
99	6/13/2014 14:26	16.046
100	6/13/2014 14:41	16.046
101	6/13/2014 14:56	16.046
102	6/13/2014 15:11	16.237
103	6/13/2014 15:26	15.951
104	6/13/2014 15:41	15.951
105	6/13/2014 15:56	16.046
106	6/13/2014 16:11	16.046
107	6/13/2014 16:26	16.046
108	6/13/2014 16:41	15.951
109	6/13/2014 16:56	15.951
110	6/13/2014 17:11	16.046
111	6/13/2014 17:26	16.046
112	6/13/2014 17:41	15.951
113	6/13/2014 17:56	15.951
114	6/13/2014 18:11	15.855
115	6/13/2014 18:26	15.855
116	6/13/2014 18:41	15.76
117	6/13/2014 18:56	15.569
118	6/13/2014 19:11	15.473
119	6/13/2014 19:26	15.378
120	6/13/2014 19:41	15.282
121	6/13/2014 19:56	15.473
122	6/13/2014 20:11	15.473
123	6/13/2014 20:26	15.378
124	6/13/2014 20:41	15.282
125	6/13/2014 20:56	15.187
126	6/13/2014 21:11	15.091
127	6/13/2014 21:26	15.091
128	6/13/2014 21:41	15.091
129	6/13/2014 21:56	15.091
130	6/13/2014 22:11	15.091
131	6/13/2014 22:26	15.091
132	6/13/2014 22:41	15.091
133	6/13/2014 22:56	15.091
134	6/13/2014 23:11	15.091
135	6/13/2014 23:26	15.091
136	6/13/2014 23:41	15.091
137	6/13/2014 23:56	15.091
138	6/14/2014 0:11	15.282
139	6/14/2014 0:26	15.282
140	6/14/2014 0:41	15.282
141	6/14/2014 0:56	15.187
142	6/14/2014 1:11	15.282
143	6/14/2014 1:26	15.282
144	6/14/2014 1:41	15.282
145	6/14/2014 1:56	15.282
146	6/14/2014 2:11	15.187
147	6/14/2014 2:26	15.187
148	6/14/2014 2:41	15.187
149	6/14/2014 2:56	15.187
150	6/14/2014 3:11	15.091
151	6/14/2014 3:26	15.187
152	6/14/2014 3:41	15.187
153	6/14/2014 3:56	15.187
154	6/14/2014 4:11	15.187
155	6/14/2014 4:26	15.187
156	6/14/2014 4:41	15.187
157	6/14/2014 4:56	15.187
158	6/14/2014 5:11	15.282
159	6/14/2014 5:26	15.187
160	6/14/2014 5:41	15.187
161	6/14/2014 5:56	15.187
162	6/14/2014 6:11	15.187
163	6/14/2014 6:26	15.187
164	6/14/2014 6:41	15.187
165	6/14/2014 6:56	15.091
166	6/14/2014 7:11	15.091
167	6/14/2014 7:26	14.996
168	6/14/2014 7:41	14.996
169	6/14/2014 7:56	14.996
170	6/14/2014 8:11	14.996
171	6/14/2014 8:26	15.091
172	6/14/2014 8:41	15.091
173	6/14/2014 8:56	15.091
174	6/14/2014 9:11	14.996
175	6/14/2014 9:26	14.996
176	6/14/2014 9:41	15.091
177	6/14/2014 9:56	15.091
178	6/14/2014 10:11	15.091
179	6/14/2014 10:26	15.091
180	6/14/2014 10:41	15.091
181	6/14/2014 10:56	15.187
182	6/14/2014 11:11	15.187
183	6/14/2014 11:26	15.187
184	6/14/2014 11:41	15.187
185	6/14/2014 11:56	15.187
186	6/14/2014 12:11	15.282
187	6/14/2014 12:26	15.282
188	6/14/2014 12:41	15.378
189	6/14/2014 12:56	15.378
190	6/14/2014 13:11	15.569
191	6/14/2014 13:26	15.664
192	6/14/2014 13:41	15.76
193	6/14/2014 13:56	15.855
194	6/14/2014 14:11	15.855
195	6/14/2014 14:26	16.046
196	6/14/2014 14:41	15.951
197	6/14/2014 14:56	15.855
198	6/14/2014 15:11	15.855
199	6/14/2014 15:26	16.046
200	6/14/2014 15:41	16.141
201	6/14/2014 15:56	15.951
202	6/14/2014 16:11	15.855
203	6/14/2014 16:26	15.664
204	6/14/2014 16:41	15.76
205	6/14/2014 16:56	15.855
206	6/14/2014 17:11	15.855
207	6/14/2014 17:26	15.76
208	6/14/2014 17:41	15.76
209	6/14/2014 17:56	15.76
210	6/14/2014 18:11	15.76
211	6/14/2014 18:26	15.76
212	6/14/2014 18:41	15.664
213	6/14/2014 18:56	15.76
214	6/14/2014 19:11	15.664
215	6/14/2014 19:26	15.569
216	6/14/2014 19:41	15.473
217	6/14/2014 19:56	15.378
218	6/14/2014 20:11	15.282
219	6/14/2014 20:26	15.187
220	6/14/2014 20:41	15.187
221	6/14/2014 20:56	15.282
222	6/14/2014 21:11	15.282
223	6/14/2014 21:26	15.091
224	6/14/2014 21:41	14.996
225	6/14/2014 21:56	14.804
226	6/14/2014 22:11	14.996
227	6/14/2014 22:26	14.804
228	6/14/2014 22:41	14.9
229	6/14/2014 22:56	14.9
230	6/14/2014 23:11	14.9
231	6/14/2014 23:26	14.804
232	6/14/2014 23:41	14.804
233	6/14/2014 23:56	14.804
234	6/15/2014 0:11	14.804
235	6/15/2014 0:26	14.804
236	6/15/2014 0:41	14.996
237	6/15/2014 0:56	14.996
238	6/15/2014 1:11	14.996
239	6/15/2014 1:26	14.996
240	6/15/2014 1:41	15.091
241	6/15/2014 1:56	15.091
242	6/15/2014 2:11	15.091
243	6/15/2014 2:26	15.091
244	6/15/2014 2:41	15.091
245	6/15/2014 2:56	15.091
246	6/15/2014 3:11	15.187
247	6/15/2014 3:26	15.187
248	6/15/2014 3:41	15.187
249	6/15/2014 3:56	15.091
250	6/15/2014 4:11	15.091
251	6/15/2014 4:26	15.187
252	6/15/2014 4:41	15.091
253	6/15/2014 4:56	15.091
254	6/15/2014 5:11	15.187
255	6/15/2014 5:26	15.187
256	6/15/2014 5:41	15.091
257	6/15/2014 5:56	14.996
258	6/15/2014 6:11	15.091
259	6/15/2014 6:26	14.996
260	6/15/2014 6:41	14.996
261	6/15/2014 6:56	14.996
262	6/15/2014 7:11	14.996
263	6/15/2014 7:26	14.996
264	6/15/2014 7:41	14.996
265	6/15/2014 7:56	14.996
266	6/15/2014 8:11	14.996
267	6/15/2014 8:26	14.996
268	6/15/2014 8:41	14.996
269	6/15/2014 8:56	14.996
270	6/15/2014 9:11	14.996
271	6/15/2014 9:26	14.996
272	6/15/2014 9:41	14.996
273	6/15/2014 9:56	14.996
274	6/15/2014 10:11	15.091
275	6/15/2014 10:26	15.091
276	6/15/2014 10:41	15.187
277	6/15/2014 10:56	15.091
278	6/15/2014 11:11	15.187
279	6/15/2014 11:26	15.187
280	6/15/2014 11:41	15.187
281	6/15/2014 11:56	15.282
282	6/15/2014 12:11	15.187
283	6/15/2014 12:26	15.187
284	6/15/2014 12:41	15.282
285	6/15/2014 12:56	15.282
286	6/15/2014 13:11	15.473
287	6/15/2014 13:26	15.569
288	6/15/2014 13:41	15.569
289	6/15/2014 13:56	15.664
290	6/15/2014 14:11	15.76
291	6/15/2014 14:26	15.855
292	6/15/2014 14:41	15.951
293	6/15/2014 14:56	16.046
294	6/15/2014 15:11	16.141
295	6/15/2014 15:26	16.046
296	6/15/2014 15:41	15.951
297	6/15/2014 15:56	15.76
298	6/15/2014 16:11	15.855
299	6/15/2014 16:26	15.855
300	6/15/2014 16:41	16.141
301	6/15/2014 16:56	15.569
302	6/15/2014 17:11	15.664
303	6/15/2014 17:26	15.664
304	6/15/2014 17:41	15.664
305	6/15/2014 17:56	15.664
306	6/15/2014 18:11	15.664
307	6/15/2014 18:26	15.664
308	6/15/2014 18:41	15.664
309	6/15/2014 18:56	15.664
310	6/15/2014 19:11	15.664
311	6/15/2014 19:26	15.569
312	6/15/2014 19:41	15.569
313	6/15/2014 19:56	15.569
314	6/15/2014 20:11	15.473
315	6/15/2014 20:26	15.282
316	6/15/2014 20:41	15.091
317	6/15/2014 20:56	15.091
318	6/15/2014 21:11	15.091
319	6/15/2014 21:26	15.091
320	6/15/2014 21:41	15.091
321	6/15/2014 21:56	15.091
322	6/15/2014 22:11	14.996
323	6/15/2014 22:26	14.804
324	6/15/2014 22:41	14.9
325	6/15/2014 22:56	14.804
326	6/15/2014 23:11	14.804
327	6/15/2014 23:26	14.804
328	6/15/2014 23:41	14.804
329	6/15/2014 23:56	14.709
330	6/16/2014 0:11	14.709
331	6/16/2014 0:26	14.804
332	6/16/2014 0:41	14.804
333	6/16/2014 0:56	14.804
334	6/16/2014 1:11	14.804
335	6/16/2014 1:26	14.804
336	6/16/2014 1:41	14.804
337	6/16/2014 1:56	14.804
338	6/16/2014 2:11	14.804
339	6/16/2014 2:26	14.804
340	6/16/2014 2:41	14.804
341	6/16/2014 2:56	14.804
342	6/16/2014 3:11	14.9
343	6/16/2014 3:26	14.9
344	6/16/2014 3:41	14.996
345	6/16/2014 3:56	14.996
346	6/16/2014 4:11	14.996
347	6/16/2014 4:26	14.996
348	6/16/2014 4:41	14.996
349	6/16/2014 4:56	14.996
350	6/16/2014 5:11	14.996
351	6/16/2014 5:26	14.996
352	6/16/2014 5:41	14.9
353	6/16/2014 5:56	14.9
354	6/16/2014 6:11	14.996
355	6/16/2014 6:26	14.996
356	6/16/2014 6:41	14.996
357	6/16/2014 6:56	14.804
358	6/16/2014 7:11	14.804
359	6/16/2014 7:26	14.804
360	6/16/2014 7:41	14.804
361	6/16/2014 7:56	14.804
362	6/16/2014 8:11	14.804
363	6/16/2014 8:26	14.804
364	6/16/2014 8:41	14.804
365	6/16/2014 8:56	14.804
366	6/16/2014 9:11	14.804
367	6/16/2014 9:26	14.804
368	6/16/2014 9:41	14.804
369	6/16/2014 9:56	14.804
370	6/16/2014 10:11	14.804
371	6/16/2014 10:26	14.804
372	6/16/2014 10:41	14.804
373	6/16/2014 10:56	14.9
374	6/16/2014 11:11	14.9
375	6/16/2014 11:26	14.9
376	6/16/2014 11:41	14.9
377	6/16/2014 11:56	14.9
378	6/16/2014 12:11	14.9
379	6/16/2014 12:26	14.996
380	6/16/2014 12:41	14.996
381	6/16/2014 12:56	15.091
382	6/16/2014 13:11	15.091
383	6/16/2014 13:26	15.091
384	6/16/2014 13:41	15.091
385	6/16/2014 13:56	15.091
386	6/16/2014 14:11	15.091
387	6/16/2014 14:26	15.187
388	6/16/2014 14:41	15.187
389	6/16/2014 14:56	15.282
390	6/16/2014 15:11	15.282
391	6/16/2014 15:26	15.378
392	6/16/2014 15:41	15.378
393	6/16/2014 15:56	15.473
394	6/16/2014 16:11	15.569
395	6/16/2014 16:26	15.569
396	6/16/2014 16:41	15.664
397	6/16/2014 16:56	15.569
398	6/16/2014 17:11	15.664
399	6/16/2014 17:26	15.664
400	6/16/2014 17:41	15.664
401	6/16/2014 17:56	15.378
402	6/16/2014 18:11	15.378
403	6/16/2014 18:26	15.282
404	6/16/2014 18:41	15.378
405	6/16/2014 18:56	15.282
406	6/16/2014 19:11	15.187
407	6/16/2014 19:26	15.282
408	6/16/2014 19:41	15.282
409	6/16/2014 19:56	15.187
410	6/16/2014 20:11	15.187
411	6/16/2014 20:26	15.282
412	6/16/2014 20:41	15.187
413	6/16/2014 20:56	15.187
414	6/16/2014 21:11	15.187
415	6/16/2014 21:26	15.091
416	6/16/2014 21:41	15.091
417	6/16/2014 21:56	14.996
418	6/16/2014 22:11	14.9
419	6/16/2014 22:26	14.804
420	6/16/2014 22:41	14.709
421	6/16/2014 22:56	14.517
422	6/16/2014 23:11	14.517
423	6/16/2014 23:26	14.517
424	6/16/2014 23:41	14.517
425	6/16/2014 23:56	14.517
426	6/17/2014 0:11	14.421
427	6/17/2014 0:26	14.517
428	6/17/2014 0:41	14.421
429	6/17/2014 0:56	14.421
430	6/17/2014 1:11	14.421
431	6/17/2014 1:26	14.517
432	6/17/2014 1:41	14.517
433	6/17/2014 1:56	14.517
434	6/17/2014 2:11	14.613
435	6/17/2014 2:26	14.613
436	6/17/2014 2:41	14.613
437	6/17/2014 2:56	14.613
438	6/17/2014 3:11	14.613
439	6/17/2014 3:26	14.709
440	6/17/2014 3:41	14.709
441	6/17/2014 3:56	14.709
442	6/17/2014 4:11	14.709
443	6/17/2014 4:26	14.804
444	6/17/2014 4:41	14.804
445	6/17/2014 4:56	14.804
446	6/17/2014 5:11	14.9
447	6/17/2014 5:26	14.996
448	6/17/2014 5:41	14.996
449	6/17/2014 5:56	14.9
450	6/17/2014 6:11	14.9
451	6/17/2014 6:26	14.9
452	6/17/2014 6:41	14.804
453	6/17/2014 6:56	14.804
454	6/17/2014 7:11	14.9
455	6/17/2014 7:26	14.9
456	6/17/2014 7:41	14.804
457	6/17/2014 7:56	14.613
458	6/17/2014 8:11	14.709
459	6/17/2014 8:26	14.613
460	6/17/2014 8:41	14.613
461	6/17/2014 8:56	14.709
462	6/17/2014 9:11	14.709
463	6/17/2014 9:26	14.709
464	6/17/2014 9:41	14.804
465	6/17/2014 9:56	14.709
466	6/17/2014 10:11	14.709
467	6/17/2014 10:26	14.709
468	6/17/2014 10:41	14.709
469	6/17/2014 10:56	14.709
470	6/17/2014 11:11	14.804
471	6/17/2014 11:26	14.804
472	6/17/2014 11:41	14.9
473	6/17/2014 11:56	14.996
474	6/17/2014 12:11	14.996
475	6/17/2014 12:26	14.996
476	6/17/2014 12:41	14.996
477	6/17/2014 12:56	15.187
478	6/17/2014 13:11	15.091
479	6/17/2014 13:26	14.996
480	6/17/2014 13:41	14.996
481	6/17/2014 13:56	14.996
482	6/17/2014 14:11	14.996
483	6/17/2014 14:26	14.996
484	6/17/2014 14:41	15.091
485	6/17/2014 14:56	15.282
486	6/17/2014 15:11	15.378
487	6/17/2014 15:26	15.473
488	6/17/2014 15:41	15.473
489	6/17/2014 15:56	15.664
490	6/17/2014 16:11	15.664
491	6/17/2014 16:26	15.855
492	6/17/2014 16:41	16.046
493	6/17/2014 16:56	15.855
494	6/17/2014 17:11	15.76
495	6/17/2014 17:26	15.76
496	6/17/2014 17:41	15.951
497	6/17/2014 17:56	16.141
498	6/17/2014 18:11	15.473
499	6/17/2014 18:26	15.473
500	6/17/2014 18:41	15.091
501	6/17/2014 18:56	15.091
502	6/17/2014 19:11	15.378
503	6/17/2014 19:26	15.282
504	6/17/2014 19:41	15.282
505	6/17/2014 19:56	15.282
506	6/17/2014 20:11	15.282
507	6/17/2014 20:26	15.378
508	6/17/2014 20:41	15.282
509	6/17/2014 20:56	15.187
510	6/17/2014 21:11	15.187
511	6/17/2014 21:26	15.091
512	6/17/2014 21:41	15.091
513	6/17/2014 21:56	15.091
514	6/17/2014 22:11	14.996
515	6/17/2014 22:26	14.996
516	6/17/2014 22:41	14.804
517	6/17/2014 22:56	14.996
518	6/17/2014 23:11	14.996
519	6/17/2014 23:26	14.804
520	6/17/2014 23:41	14.613
521	6/17/2014 23:56	14.613
522	6/18/2014 0:11	14.517
523	6/18/2014 0:26	14.421
524	6/18/2014 0:41	14.517
525	6/18/2014 0:56	14.517
526	6/18/2014 1:11	14.517
527	6/18/2014 1:26	14.517
528	6/18/2014 1:41	14.517
529	6/18/2014 1:56	14.517
530	6/18/2014 2:11	14.517
531	6/18/2014 2:26	14.517
532	6/18/2014 2:41	14.709
533	6/18/2014 2:56	14.804
534	6/18/2014 3:11	14.709
535	6/18/2014 3:26	14.709
536	6/18/2014 3:41	14.709
537	6/18/2014 3:56	14.709
538	6/18/2014 4:11	14.709
539	6/18/2014 4:26	14.804
540	6/18/2014 4:41	14.804
541	6/18/2014 4:56	14.804
542	6/18/2014 5:11	14.709
543	6/18/2014 5:26	14.613
544	6/18/2014 5:41	14.709
545	6/18/2014 5:56	14.709
546	6/18/2014 6:11	14.709
547	6/18/2014 6:26	14.709
548	6/18/2014 6:41	14.804
549	6/18/2014 6:56	14.804
550	6/18/2014 7:11	14.804
551	6/18/2014 7:26	14.804
552	6/18/2014 7:41	14.9
553	6/18/2014 7:56	14.996
554	6/18/2014 8:11	14.9
555	6/18/2014 8:26	14.9
556	6/18/2014 8:41	14.804
557	6/18/2014 8:56	14.804
558	6/18/2014 9:11	14.709
559	6/18/2014 9:26	14.613
560	6/18/2014 9:41	14.613
561	6/18/2014 9:56	14.613
562	6/18/2014 10:11	14.709
563	6/18/2014 10:26	14.709
564	6/18/2014 10:41	14.804
565	6/18/2014 10:56	14.804
566	6/18/2014 11:11	14.709
567	6/18/2014 11:26	14.709
568	6/18/2014 11:41	14.709
569	6/18/2014 11:56	14.709
570	6/18/2014 12:11	14.709
571	6/18/2014 12:26	14.709
572	6/18/2014 12:41	14.804
573	6/18/2014 12:56	14.804
574	6/18/2014 13:11	14.9
575	6/18/2014 13:26	14.996
576	6/18/2014 13:41	14.996
577	6/18/2014 13:56	14.996
578	6/18/2014 14:11	15.091
579	6/18/2014 14:26	15.091
580	6/18/2014 14:41	15.091
581	6/18/2014 14:56	14.996
582	6/18/2014 15:11	15.091
583	6/18/2014 15:26	15.091
584	6/18/2014 15:41	15.378
585	6/18/2014 15:56	15.664
586	6/18/2014 16:11	15.76
587	6/18/2014 16:26	15.76
588	6/18/2014 16:41	15.664
589	6/18/2014 16:56	15.855
590	6/18/2014 17:11	15.855
591	6/18/2014 17:26	15.664
592	6/18/2014 17:41	15.569
593	6/18/2014 17:56	16.523
594	6/18/2014 18:11	16.618
595	6/18/2014 18:26	15.951
596	6/18/2014 18:41	15.473
597	6/18/2014 18:56	15.378
598	6/18/2014 19:11	15.282
599	6/18/2014 19:26	15.473
600	6/18/2014 19:41	15.187
601	6/18/2014 19:56	14.996
602	6/18/2014 20:11	15.091
603	6/18/2014 20:26	15.473
604	6/18/2014 20:41	15.569
605	6/18/2014 20:56	15.569
606	6/18/2014 21:11	15.473
607	6/18/2014 21:26	15.569
608	6/18/2014 21:41	15.473
609	6/18/2014 21:56	15.473
610	6/18/2014 22:11	15.473
611	6/18/2014 22:26	15.473
612	6/18/2014 22:41	15.473
613	6/18/2014 22:56	15.473
614	6/18/2014 23:11	15.378
615	6/18/2014 23:26	15.282
616	6/18/2014 23:41	15.282
617	6/18/2014 23:56	15.282
618	6/19/2014 0:11	14.996
619	6/19/2014 0:26	14.709
620	6/19/2014 0:41	14.709
621	6/19/2014 0:56	14.613
622	6/19/2014 1:11	14.709
623	6/19/2014 1:26	14.804
624	6/19/2014 1:41	14.709
625	6/19/2014 1:56	14.613
626	6/19/2014 2:11	14.804
627	6/19/2014 2:26	14.996
628	6/19/2014 2:41	14.996
629	6/19/2014 2:56	14.996
630	6/19/2014 3:11	14.9
631	6/19/2014 3:26	14.9
632	6/19/2014 3:41	14.9
633	6/19/2014 3:56	14.9
634	6/19/2014 4:11	14.9
635	6/19/2014 4:26	14.9
636	6/19/2014 4:41	14.9
637	6/19/2014 4:56	14.9
638	6/19/2014 5:11	14.804
639	6/19/2014 5:26	14.804
640	6/19/2014 5:41	14.804
641	6/19/2014 5:56	14.9
642	6/19/2014 6:11	14.9
643	6/19/2014 6:26	14.9
644	6/19/2014 6:41	14.996
645	6/19/2014 6:56	14.9
646	6/19/2014 7:11	14.996
647	6/19/2014 7:26	15.091
648	6/19/2014 7:41	15.282
649	6/19/2014 7:56	15.282
650	6/19/2014 8:11	15.187
651	6/19/2014 8:26	15.091
652	6/19/2014 8:41	15.091
653	6/19/2014 8:56	15.091
654	6/19/2014 9:11	14.996
655	6/19/2014 9:26	15.091
656	6/19/2014 9:41	14.804
657	6/19/2014 9:56	14.804
658	6/19/2014 10:11	14.996
659	6/19/2014 10:26	15.091
660	6/19/2014 10:41	15.091
661	6/19/2014 10:56	15.091
662	6/19/2014 11:11	15.187
663	6/19/2014 11:26	15.187
664	6/19/2014 11:41	15.091
665	6/19/2014 11:56	15.187
666	6/19/2014 12:11	15.569
667	6/19/2014 12:26	16.332
668	6/19/2014 12:41	16.237
669	6/19/2014 12:56	16.427
670	6/19/2014 13:11	16.141
671	6/19/2014 13:26	15.855
672	6/19/2014 13:41	16.332
673	6/19/2014 13:56	16.713
674	6/19/2014 14:11	15.664
675	6/19/2014 14:26	15.664
676	6/19/2014 14:41	15.855
677	6/19/2014 14:56	15.76
678	6/19/2014 15:11	15.76
679	6/19/2014 15:26	15.664
680	6/19/2014 15:41	15.569
681	6/19/2014 15:56	15.569
682	6/19/2014 16:11	15.569
683	6/19/2014 16:26	15.378
684	6/19/2014 16:41	15.473
685	6/19/2014 16:56	15.378
686	6/19/2014 17:11	15.378
687	6/19/2014 17:26	15.473
688	6/19/2014 17:41	15.569
689	6/19/2014 17:56	15.664
690	6/19/2014 18:11	15.569
691	6/19/2014 18:26	15.855
692	6/19/2014 18:41	15.951
693	6/19/2014 18:56	15.951
694	6/19/2014 19:11	16.523
695	6/19/2014 19:26	16.713
696	6/19/2014 19:41	15.282
697	6/19/2014 19:56	14.9
698	6/19/2014 20:11	14.804
699	6/19/2014 20:26	14.613
700	6/19/2014 20:41	14.613
701	6/19/2014 20:56	14.9
702	6/19/2014 21:11	15.091
703	6/19/2014 21:26	15.378
704	6/19/2014 21:41	15.76
705	6/19/2014 21:56	15.951
706	6/19/2014 22:11	15.76
707	6/19/2014 22:26	16.046
708	6/19/2014 22:41	15.951
709	6/19/2014 22:56	15.951
710	6/19/2014 23:11	15.855
711	6/19/2014 23:26	15.76
712	6/19/2014 23:41	15.664
713	6/19/2014 23:56	15.378
714	6/20/2014 0:11	15.187
715	6/20/2014 0:26	14.804
716	6/20/2014 0:41	14.9
717	6/20/2014 0:56	14.804
718	6/20/2014 1:11	14.517
719	6/20/2014 1:26	14.613
720	6/20/2014 1:41	14.517
721	6/20/2014 1:56	14.517
722	6/20/2014 2:11	14.517
723	6/20/2014 2:26	14.517
724	6/20/2014 2:41	14.517
725	6/20/2014 2:56	14.517
726	6/20/2014 3:11	14.517
727	6/20/2014 3:26	14.517
728	6/20/2014 3:41	14.613
729	6/20/2014 3:56	14.709
730	6/20/2014 4:11	14.613
731	6/20/2014 4:26	14.613
732	6/20/2014 4:41	14.613
733	6/20/2014 4:56	14.613
734	6/20/2014 5:11	14.613
735	6/20/2014 5:26	14.709
736	6/20/2014 5:41	14.709
737	6/20/2014 5:56	14.709
738	6/20/2014 6:11	14.709
739	6/20/2014 6:26	14.709
740	6/20/2014 6:41	14.804
741	6/20/2014 6:56	14.804
742	6/20/2014 7:11	14.804
743	6/20/2014 7:26	14.804
744	6/20/2014 7:41	14.804
745	6/20/2014 7:56	14.9
746	6/20/2014 8:11	14.996
747	6/20/2014 8:26	15.091
748	6/20/2014 8:41	15.187
749	6/20/2014 8:56	15.378
750	6/20/2014 9:11	15.187
751	6/20/2014 9:26	14.996
752	6/20/2014 9:41	14.9
753	6/20/2014 9:56	14.804
754	6/20/2014 10:11	14.709
755	6/20/2014 10:26	14.709
756	6/20/2014 10:41	14.804
757	6/20/2014 10:56	14.804
758	6/20/2014 11:11	14.804
759	6/20/2014 11:26	14.9
760	6/20/2014 11:41	14.996
761	6/20/2014 11:56	15.187
762	6/20/2014 12:11	15.282
763	6/20/2014 12:26	15.282
764	6/20/2014 12:41	15.473
765	6/20/2014 12:56	15.378
766	6/20/2014 13:11	15.187
767	6/20/2014 13:26	15.187
768	6/20/2014 13:41	15.76
769	6/20/2014 13:56	15.951
770	6/20/2014 14:11	15.855
771	6/20/2014 14:26	15.378
772	6/20/2014 14:41	15.664
773	6/20/2014 14:56	15.76
774	6/20/2014 15:11	15.664
775	6/20/2014 15:26	15.569
776	6/20/2014 15:41	15.855
777	6/20/2014 15:56	15.76
778	6/20/2014 16:11	15.664
779	6/20/2014 16:26	15.473
780	6/20/2014 16:41	15.187
781	6/20/2014 16:56	14.996
782	6/20/2014 17:11	15.091
783	6/20/2014 17:26	15.378
784	6/20/2014 17:41	15.378
785	6/20/2014 17:56	14.996
786	6/20/2014 18:11	14.9
787	6/20/2014 18:26	14.804
788	6/20/2014 18:41	14.9
789	6/20/2014 18:56	15.187
790	6/20/2014 19:11	15.187
791	6/20/2014 19:26	15.282
792	6/20/2014 19:41	15.76
793	6/20/2014 19:56	15.951
794	6/20/2014 20:11	15.76
795	6/20/2014 20:26	16.046
796	6/20/2014 20:41	16.046
797	6/20/2014 20:56	15.569
798	6/20/2014 21:11	14.709
799	6/20/2014 21:26	14.613
800	6/20/2014 21:41	14.613
801	6/20/2014 21:56	14.517
802	6/20/2014 22:11	14.517
803	6/20/2014 22:26	14.517
804	6/20/2014 22:41	15.187
805	6/20/2014 22:56	15.569
806	6/20/2014 23:11	15.569
807	6/20/2014 23:26	15.473
808	6/20/2014 23:41	15.664
809	6/20/2014 23:56	15.855
810	6/21/2014 0:11	15.76
811	6/21/2014 0:26	15.664
812	6/21/2014 0:41	15.664
813	6/21/2014 0:56	15.569
814	6/21/2014 1:11	15.569
815	6/21/2014 1:26	15.473
816	6/21/2014 1:41	15.378
817	6/21/2014 1:56	15.187
818	6/21/2014 2:11	15.187
819	6/21/2014 2:26	15.091
820	6/21/2014 2:41	15.091
821	6/21/2014 2:56	14.996
822	6/21/2014 3:11	14.996
823	6/21/2014 3:26	14.996
824	6/21/2014 3:41	15.091
825	6/21/2014 3:56	15.187
826	6/21/2014 4:11	15.091
827	6/21/2014 4:26	15.091
828	6/21/2014 4:41	15.091
829	6/21/2014 4:56	15.091
830	6/21/2014 5:11	15.091
831	6/21/2014 5:26	15.091
832	6/21/2014 5:41	15.091
833	6/21/2014 5:56	14.996
834	6/21/2014 6:11	14.996
835	6/21/2014 6:26	14.996
836	6/21/2014 6:41	15.091
837	6/21/2014 6:56	15.091
838	6/21/2014 7:11	15.091
839	6/21/2014 7:26	15.091
840	6/21/2014 7:41	15.091
841	6/21/2014 7:56	15.091
842	6/21/2014 8:11	15.091
843	6/21/2014 8:26	15.091
844	6/21/2014 8:41	15.187
845	6/21/2014 8:56	15.282
846	6/21/2014 9:11	15.282
847	6/21/2014 9:26	15.378
848	6/21/2014 9:41	15.664
849	6/21/2014 9:56	15.569
850	6/21/2014 10:11	15.473
851	6/21/2014 10:26	15.187
852	6/21/2014 10:41	15.951
853	6/21/2014 10:56	15.855
854	6/21/2014 11:11	16.141
855	6/21/2014 11:26	16.141
856	6/21/2014 11:41	15.282
857	6/21/2014 11:56	15.091
858	6/21/2014 12:11	15.091
859	6/21/2014 12:26	15.091
860	6/21/2014 12:41	15.187
861	6/21/2014 12:56	15.282
862	6/21/2014 13:11	15.378
863	6/21/2014 13:26	15.378
864	6/21/2014 13:41	15.378
865	6/21/2014 13:56	15.473
866	6/21/2014 14:11	15.473
867	6/21/2014 14:26	15.473
868	6/21/2014 14:41	15.378
869	6/21/2014 14:56	15.664
870	6/21/2014 15:11	15.855
871	6/21/2014 15:26	15.76
872	6/21/2014 15:41	16.141
873	6/21/2014 15:56	15.951
874	6/21/2014 16:11	15.951
875	6/21/2014 16:26	16.237
876	6/21/2014 16:41	15.855
877	6/21/2014 16:56	15.76